星链-4762 (STARLINK-4762 )

导读 | 星芒AI

STARLINK-4762 是 SpaceX Starlink 卫星互联网项目中的一颗低轨卫星,属于“星链”计划的组网成员。该卫星由 SpaceX 研制并发射,旨在为全球用户提供高速、低延迟的宽带互联网服务。它运行在约 550 公里的近地轨道,采用先进通信技术,支持全球范围内的网络连接,尤其服务于偏远和网络基础设施薄弱的地区。STARLINK-4762 的部署有助于提升 Starlink 网络的覆盖密度和稳定性,是构建全球卫星互联网的重要组成部分。

基本信息
目录编号:
53866
目录名称:
STARLINK-4762
国际标识:
2022-114BA
轨道中心:
EARTH
卫星名称:
星链-4762
卫星全名:
星链-4762 (STARLINK-4762 )
卫星状态:
在轨 (已飞行1138 天)
发射日期:
2022-09-19 UTC
国别 :
美国 (US)
星等 :
--
轨道信息
数据来源 国际轨道数据 AOE轨道数据
星历时间 2025-10-31T13:14:46+0800
8小时前
查看轨道信息
2025-10-31T08:00:00+0800
13小时前
查看轨道信息
半长轴 6917.902km 6917.842km
偏心率 0.000151 0.0001399
轨道倾角 53.217° 53.216°
近地点辐角 90.468° 98.988°
升交点赤经 125.547° 126.530°
平近点角 269.649° 153.166°
近地点 538.722km 538.739km
远地点 540.812km 540.675km
周期 95.438分钟 95.437分钟
每日圈数 15.08833 15.088528
详细信息
固有亮度:
5
最大亮度:
2.5
卫星平台:
Starlink v1.5
覆盖范围:
全球
运营商:
太空探索技术公司
运营商所在国:
美国
制造商(研发单位):
太空探索技术公司
制造商所在国:
美国
使用方式:
暂无
卫星简介
星链(Starlink)计划是由太空探索技术公司(SpaceX)提出的一个巨型低轨卫星互联网星座项目,计划在2019年至2024年间在太空搭建由约1.2万颗卫星组成的“星链”网络,其中1584颗将部署在地球上空550千米处的近地轨道,并从2020年开始工作。该卫星仍在工作。
2D轨道图
3D轨道图
轨道高度分析图
轨道倾角分析图
轨道综合分析图
查看轨道综合分析图